Погода в Минске

Беларусь     53°54′08″N   27°33′41″E
темп.,
°C
ветер,
м/с
пор.,
м/с
влажн.,
%
обл.,
%
осадки,
мм/ч
давл.,
гПа
погр.,
м
19 апреля, пн
пн1900:00+8юв11794 0.0 102129
03:00+6в118459 0.0 102112
06:00+6всв248524 0.0 1021114
09:00+8в59725 0.1 1021681
12:00+11всв695776 0.0 10201579
15:00+11в6758100 0.1 10211445
18:00+10всв576683 0.2 1020961
21:00+8всв487546 0.3 1020471
20 апреля, вт
вт2000:00+6всв498897 0.0 1020379
03:00+5всв379494 0.0 1019247
06:00+5св3793100 0.1 1018280
09:00+7св458294 0.4 1017766
12:00+8св3571100 0.9 10161057
15:00+8св4469100 1.5 10141121
18:00+8св4571100 0.2 1013837
21:00+5всв2580100 0.2 1013410
21 апреля, ср
ср2100:00+4св129016 0.0 101292
03:00+4ссв1189100 0.0 1010111
06:00+4з2386100 0.0 1009162
09:00+4з3492100 0.3 1008591
12:00+4зсз359169 1.0 1009418
15:00+7зсз466697 1.1 1008899
18:00+9сз375739 0.1 10081381
21:00+6юз116967 0.1 100910
22 апреля, чт
чт2200:00+5ю377565 0.0 1009143
03:00+4ююз378582 0.0 1009135
06:00+5ю3986100 0.0 1009195
09:00+7юз598792 0.2 1009651
12:00+7зюз587667 0.1 10121005
15:00+11зюз7104097 0.1 10112016
18:00+9зюз6946100 0.0 10121499
21:00+6юз385684 0.0 1013467
23 апреля, пт
пт2300:00+5ююз3863100 0.0 1013240
03:00+4юз3764100 0.0 1012232
06:00+3юз4969100 0.0 1012374
09:00+5зюз5106398 0.0 1012950
12:00+6з785931 0.0 10131316
15:00+6з575899 0.1 10151398
18:00+7з465514 0.0 10151125
21:00+5з377597 0.1 1016435